Change the Weather History Date:

Friday, November 15, 2013

  Actual Average Record
Temperature  
Mean Temperature 36 °F -  
Max Temperature 42 °F 42 °F 60 °F (1979)
Min Temperature 30 °F 32 °F 7 °F (1959)
Degree Days  
Heating Degree Days 29    
Moisture  
Dew Point 27 °F    
Average Humidity 68    
Maximum Humidity 93    
Minimum Humidity 34    
Precipitation  
Precipitation 0.10 in - - ()
Sea Level Pressure  
Sea Level Pressure 29.60 in    
Wind  
Wind Speed 10 mph (NNE)    
Max Wind Speed 16 mph    
Max Gust Speed 23 mph    
Visibility 10 miles    
Events      
Averages and records for this station are not official NWS values.
T = Trace of Precipitation, MM = Missing Value Source: NWS Daily Summary

Daily Weather History Graph

Daily Weather History Graph

Search for Another Location

Airport or City:

Trip Planner

Search our weather history database for the weather conditions in past years. The results will help you decide how hot, cold, wet, or windy it might be!

Date:

Astronomy

Nov. 15, 2013 Rise Set
Actual Time 7:29 AM AKST 3:38 PM AKST
Civil Twilight 6:46 AM AKST 4:21 PM AKST
Nautical Twilight 5:59 AM AKST 5:07 PM AKST
Astronomical Twilight 5:15 AM AKST 5:52 PM AKST
Moon 2:55 PM AKST (11/15) 5:13 AM AKST (11/15)
Length of Visible Light 9h 35m
Length of Day
8h 09m
Waxing Gibbous, 97% of the Moon is Illuminated
Nov 15
Waxing Gibbous
Nov 17
Full
Nov 25
Last Quarter
Dec 2
New
Dec 9
First Quarter

Hourly Weather History & Observations

Time (AKST) Temp. Windchill Dew Point Humidity Pressure Visibility Wind Dir Wind Speed Gust Speed Precip Events Conditions
12:16 AM 39.2 °F 31.6 °F 33.8 °F 81% 29.54 in 10.0 mi ENE 12.7 mph 20.7 mph N/A   Overcast
12:36 AM 39.2 °F 33.0 °F 33.8 °F 81% 29.54 in 10.0 mi ESE 9.2 mph 21.9 mph N/A   Overcast
12:56 AM 39.2 °F 31.2 °F 33.8 °F 81% 29.51 in 10.0 mi ESE 13.8 mph 23.0 mph N/A   Overcast
1:16 AM 39.2 °F 30.5 °F 33.8 °F 81% 29.50 in 10.0 mi ESE 16.1 mph 21.9 mph N/A   Overcast
1:36 AM 39.2 °F 31.2 °F 33.8 °F 81% 29.49 in 5.0 mi East 13.8 mph 19.6 mph N/A   Overcast
1:56 AM 39.2 °F 31.6 °F 33.8 °F 81% 29.48 in 9.0 mi ESE 12.7 mph 18.4 mph N/A   Overcast
2:16 AM 39.2 °F 31.6 °F 35.6 °F 87% 29.46 in 5.0 mi East 12.7 mph 18.4 mph 0.01 in   Overcast
2:36 AM 37.4 °F 29.3 °F 33.8 °F 87% 29.45 in 7.0 mi East 12.7 mph 18.4 mph 0.01 in   Overcast
2:56 AM 37.4 °F 28.2 °F 33.8 °F 87% 29.43 in 10.0 mi East 16.1 mph 20.7 mph 0.01 in   Overcast
3:16 AM 39.2 °F 32.0 °F 35.6 °F 87% 29.43 in 10.0 mi ENE 11.5 mph - 0.01 in   Overcast
3:36 AM 37.4 °F 29.8 °F 33.8 °F 87% 29.43 in 10.0 mi ESE 11.5 mph 19.6 mph 0.03 in   Overcast
3:56 AM 37.4 °F 29.8 °F 33.8 °F 87% 29.42 in 9.0 mi SE 11.5 mph - 0.03 in   Overcast
4:16 AM 37.4 °F 34.9 °F 33.8 °F 87% 29.43 in 5.0 mi NNE 3.5 mph - 0.02 in   Overcast
4:36 AM 37.4 °F 32.1 °F 33.8 °F 87% 29.42 in 5.0 mi SSE 6.9 mph - 0.04 in   Overcast
4:56 AM 37.4 °F 33.8 °F 33.8 °F 87% 29.41 in 10.0 mi SE 4.6 mph - 0.05 in   Overcast
5:16 AM 37.4 °F 32.8 °F 35.6 °F 93% 29.41 in 10.0 mi SE 5.8 mph - 0.01 in   Overcast
5:36 AM 37.4 °F 32.8 °F 33.8 °F 87% 29.41 in 10.0 mi ESE 5.8 mph - 0.01 in   Overcast
5:56 AM 37.4 °F - 33.8 °F 87% 29.42 in 10.0 mi Calm Calm - 0.01 in   Overcast
6:16 AM 39.2 °F 34.2 °F 33.8 °F 81% 29.42 in 10.0 mi NNW 6.9 mph - N/A   Overcast
6:36 AM 37.4 °F 30.3 °F 33.8 °F 87% 29.43 in 10.0 mi NNW 10.4 mph - N/A   Overcast
6:56 AM 39.2 °F 32.0 °F 33.8 °F 81% 29.44 in 10.0 mi NNW 11.5 mph - N/A   Overcast
7:16 AM 37.4 °F 28.5 °F 33.8 °F 87% 29.45 in 10.0 mi North 15.0 mph - N/A   Overcast
7:36 AM 37.4 °F 28.9 °F 32.0 °F 81% 29.46 in 10.0 mi NNW 13.8 mph 18.4 mph N/A   Overcast
7:56 AM 37.4 °F 28.9 °F 30.2 °F 75% 29.47 in 10.0 mi NNW 13.8 mph - N/A   Overcast
8:16 AM 37.4 °F 29.8 °F 30.2 °F 75% 29.48 in 10.0 mi NW 11.5 mph - N/A   Overcast
8:36 AM 37.4 °F 28.5 °F 30.2 °F 75% 29.49 in 10.0 mi NW 15.0 mph - N/A   Mostly Cloudy
8:56 AM 37.4 °F 29.3 °F 30.2 °F 75% 29.50 in 10.0 mi NW 12.7 mph 19.6 mph N/A   Mostly Cloudy
9:16 AM 39.2 °F 30.8 °F 30.2 °F 70% 29.51 in 10.0 mi NW 15.0 mph 18.4 mph N/A   Mostly Cloudy
9:36 AM 39.2 °F 31.6 °F 28.4 °F 65% 29.54 in 10.0 mi NNW 12.7 mph 17.3 mph N/A   Scattered Clouds
9:56 AM 41.0 °F 33.9 °F 26.6 °F 57% 29.55 in 10.0 mi NNW 12.7 mph 18.4 mph N/A   Scattered Clouds
10:16 AM 39.2 °F 32.0 °F 28.4 °F 65% 29.56 in 10.0 mi NNW 11.5 mph 16.1 mph N/A   Clear
10:36 AM 41.0 °F 33.9 °F 26.6 °F 57% 29.58 in 10.0 mi NNW 12.7 mph - N/A   Partly Cloudy
10:56 AM 41.0 °F 34.3 °F 26.6 °F 57% 29.59 in 10.0 mi NNW 11.5 mph 19.6 mph N/A   Partly Cloudy
11:16 AM 41.0 °F 34.3 °F 26.6 °F 57% 29.60 in 10.0 mi North 11.5 mph 17.3 mph N/A   Partly Cloudy
11:36 AM 42.8 °F 39.3 °F 21.2 °F 42% 29.61 in 10.0 mi NE 5.8 mph - N/A   Partly Cloudy
11:56 AM 42.8 °F 36.2 °F 19.4 °F 39% 29.62 in 10.0 mi NNE 12.7 mph 19.6 mph N/A   Partly Cloudy
12:16 PM 42.8 °F 35.8 °F 17.6 °F 36% 29.62 in 10.0 mi NNE 13.8 mph 21.9 mph N/A   Clear
12:36 PM 42.8 °F 37.0 °F 17.6 °F 36% 29.64 in 10.0 mi ENE 10.4 mph - N/A   Partly Cloudy
12:56 PM 42.8 °F 39.3 °F 15.8 °F 34% 29.65 in 10.0 mi NE 5.8 mph - N/A   Partly Cloudy
1:16 PM 41.0 °F 36.4 °F 26.6 °F 57% 29.66 in 10.0 mi NNW 6.9 mph - N/A   Partly Cloudy
1:36 PM 41.0 °F 34.7 °F 24.8 °F 53% 29.67 in 10.0 mi NNW 10.4 mph - N/A   Partly Cloudy
1:56 PM 41.0 °F 35.2 °F 24.8 °F 53% 29.68 in 10.0 mi NNW 9.2 mph - N/A   Partly Cloudy
2:16 PM 41.0 °F 36.4 °F 23.0 °F 49% 29.70 in 10.0 mi NNW 6.9 mph - N/A   Partly Cloudy
2:36 PM 41.0 °F 35.2 °F 21.2 °F 45% 29.70 in 10.0 mi North 9.2 mph - N/A   Partly Cloudy
2:56 PM 41.0 °F 34.7 °F 19.4 °F 42% 29.70 in 10.0 mi NNE 10.4 mph - N/A   Partly Cloudy
3:16 PM 39.2 °F 35.0 °F 24.8 °F 56% 29.71 in 10.0 mi NNW 5.8 mph - N/A   Partly Cloudy
3:36 PM 39.2 °F 37.0 °F 21.2 °F 49% 29.71 in 10.0 mi NW 3.5 mph - N/A   Partly Cloudy
3:56 PM 37.4 °F 32.8 °F 23.0 °F 56% 29.71 in 10.0 mi NNW 5.8 mph - N/A   Partly Cloudy
4:16 PM 37.4 °F 31.4 °F 23.0 °F 56% 29.70 in 10.0 mi NW 8.1 mph - N/A   Partly Cloudy
4:36 PM 35.6 °F - 21.2 °F 56% 29.71 in 10.0 mi Calm Calm - N/A   Partly Cloudy
4:56 PM 35.6 °F - 21.2 °F 56% 29.71 in 10.0 mi Calm Calm - N/A   Clear
5:16 PM 35.6 °F 29.2 °F 23.0 °F 60% 29.72 in 10.0 mi NW 8.1 mph - N/A   Clear
5:36 PM 35.6 °F 31.7 °F 21.2 °F 56% 29.73 in 10.0 mi NNW 4.6 mph - N/A   Clear
5:56 PM 35.6 °F 29.9 °F 23.0 °F 60% 29.73 in 10.0 mi North 6.9 mph - N/A   Clear
6:16 PM 33.8 °F 27.7 °F 23.0 °F 65% 29.74 in 10.0 mi NNW 6.9 mph - N/A   Clear
6:36 PM 33.8 °F - 23.0 °F 65% 29.74 in 10.0 mi Calm Calm - N/A   Clear
6:56 PM 33.8 °F - 21.2 °F 60% 29.74 in 10.0 mi Calm Calm - N/A   Clear
7:16 PM 33.8 °F 29.6 °F 21.2 °F 60% 29.74 in 10.0 mi SW 4.6 mph - N/A   Clear
7:36 PM 33.8 °F 30.8 °F 21.2 °F 60% 29.73 in 10.0 mi WNW 3.5 mph - N/A   Clear
7:56 PM 32.0 °F 25.6 °F 21.2 °F 64% 29.74 in 10.0 mi SSE 6.9 mph - N/A   Clear
8:16 PM 30.2 °F 26.7 °F 21.2 °F 69% 29.74 in 10.0 mi South 3.5 mph - N/A   Clear
8:36 PM 30.2 °F 26.7 °F 21.2 °F 69% 29.73 in 10.0 mi SSW 3.5 mph - N/A   Clear
8:56 PM 30.2 °F 23.4 °F 21.2 °F 69% 29.73 in 10.0 mi South 6.9 mph - N/A   Clear
9:16 PM 32.0 °F 27.5 °F 21.2 °F 64% 29.73 in 10.0 mi SSE 4.6 mph - N/A   Clear
9:56 PM 30.2 °F - 21.2 °F 69% 29.74 in 10.0 mi Calm Calm - N/A   Clear
10:16 PM 30.2 °F 26.7 °F 21.2 °F 69% 29.74 in 10.0 mi SSE 3.5 mph - N/A   Clear
10:36 PM 32.0 °F - 23.0 °F 69% 29.74 in 10.0 mi Calm Calm - N/A   Clear
10:56 PM 32.0 °F - 23.0 °F 69% 29.74 in 10.0 mi Calm Calm - N/A   Clear
11:16 PM 32.0 °F 23.0 °F 24.8 °F 75% 29.73 in 10.0 mi ESE 11.5 mph - N/A   Clear
11:36 PM 32.0 °F 23.6 °F 24.8 °F 75% 29.73 in 10.0 mi ESE 10.4 mph - N/A   Clear
11:56 PM 33.8 °F 26.4 °F 26.6 °F 75% 29.73 in 10.0 mi ESE 9.2 mph - N/A   Clear